ICEYE-X58

导读 | 豆包AI

ICEYE-X58卫星由芬兰(FI)于2025年11月28日发射升空,归属ICEYE公司。该卫星延续ICEYE系列合成孔径雷达卫星的设计,具备全天时、全天候成像能力,空间分辨率优异,能够为灾害监测、海事管理、资源勘探及国防安全等领域提供高精度雷达成像数据服务,进一步扩充全球商业雷达卫星星座的观测规模。

基本信息
目录编号:
66751
目录名称:
ICEYE-X58
国际标识:
2025-276CP
轨道中心:
EARTH
卫星名称:
ICEYE-X58
卫星全名:
ICEYE-X58
卫星状态:
在轨 (已飞行156 天)
发射日期:
2025-11-28 UTC
国别 :
(FI)
星等 :
--
轨道信息
数据来源 国际轨道数据
星历时间: 2026-05-02T10:30:50+0800
1天前
查看轨道信息
半长轴: 6889.305km
偏心率: 0.0006476
轨道倾角: 97.423°
近地点辐角 115.693°
升交点赤经 196.456°
平近点角 244.497°
近地点: 506.706km
远地点: 515.63km
周期: 94.847分钟
每日圈数: 15.182375
详细信息
使用方式:
暂无
2D轨道图
3D轨道图
轨道高度分析图
轨道倾角分析图
轨道综合分析图
查看轨道综合分析图